User: anonymous   Login
Location: Pebble Beach Sunset Acres
(33.0837°N, 96.4508°W)
Time: 13:31:36
(UTC+00:00)
Language:

DELTA 2 R/B (1) - Orbit

View from above orbital plane
View from above orbital plane
View from above satellite
View from above satellite

Ground track
Ground track

The orbit data is extracted from the following two-line orbital elements,

1 27665U 03005C   22141.87518630  .00000236  00000-0  12683-3 0  9996
2 27665  39.5762 305.5762 0007074  85.7580  34.6676 14.28610682  8210
Epoch (UTC): 21 May 2022 21:00:16
Eccentricity: 0.0007074
inclination: 39.5762°
perigee height: 791 km
apogee height: 801 km
right ascension of ascending node: 305.5762°
argument of perigee: 85.7580°
revolutions per day: 14.28610682
mean anomaly at epoch: 34.6676°
orbit number at epoch: 821

The dashed part of the orbit path shows where the satellite is in the earth's shadow,  

DLR